Theta_e
343 344 343 342 339 339 333 330 329 324 325 332 334 340 341 341 344 346 349 348 346 345 343 344 345 347 349 350 352 352 354 355 355 354 354 355 358 359
344 343 342 342 342 340 338 334 333 330 326 332 335 337 338 342 341 344 346 347 346 344 343 342 342 344 346 347 348 348 349 350 351 351 351 351 352 354
344 344 343 342 342 341 340 338 336 334 329 334 337 336 335 338 342 343 344 343 343 342 341 340 340 340 342 343 343 344 345 346 346 347 349 349 349 349
342 343 343 347 342 342 340 339 339 337 335 332 335 337 334 337 336 335 338 342 342 344 340 340 339 338 338 338 338 338 338 339 340 342 344 345 346 346
343 342 342 342 340 340 340 340 339 342 337 335 336 338 339 338 338 337 337 337 340 343 339 339 338 338 336 334 333 331 330 330 332 333 335 337 340 342
345 345 344 343 342 342 341 340 340 338 337 337 336 336 337 339 336 335 335 335 337 342 343 340 340 340 338 333 332 331 326 325 325 326 327 329 332 335
342 343 344 346 345 342 343 341 338 338 337 335 334 333 333 334 334 335 332 335 338 341 342 344 344 344 343 337 339 337 331 327 324 323 323 324 325 328
330 332 334 338 338 338 338 338 339 337 335 335 336 334 336 334 335 335 334 331 332 339 339 339 343 342 344 342 340 335 332 329 327 324 323 322 322 324
329 330 332 338 335 334 334 334 334 335 336 337 337 336 336 337 336 334 334 334 335 338 336 337 336 336 340 342 335 334 331 329 327 325 323 322 321 321
326 327 328 330 328 327 327 326 327 328 331 335 334 337 338 341 338 340 339 337 337 340 338 334 337 335 338 340 333 333 331 329 328 325 323 321 318 317
325 326 326 324 320 322 322 321 322 324 328 328 328 328 328 329 333 339 339 336 333 336 337 336 337 336 337 340 341 332 328 325 323 323 323 321 317 314
318 321 324 320 316 315 315 319 321 323 325 325 327 327 327 329 330 332 337 335 333 332 335 334 333 334 331 337 341 342 340 324 320 319 319 319 315 324
312 315 319 319 313 311 312 313 316 319 321 320 322 323 325 327 330 334 335 336 333 332 335 335 332 330 331 334 335 337 339 337 335 327 313 313 311 320
307 309 311 312 309 309 310 313 314 316 316 316 317 319 321 325 328 331 335 337 339 337 337 336 334 333 333 333 333 334 335 337 335 333 332 319 311 312
308 311 311 309 309 311 314 316 317 317 316 316 318 319 322 326 328 330 332 334 334 336 340 339 338 336 336 333 332 333 331 333 334 334 331 331 328 322
308 307 313 312 313 314 313 314 316 319 322 323 325 325 325 323 324 325 326 328 327 329 332 335 337 337 334 334 334 333 337 332 331 334 335 332 329 328
306 310 308 306 305 306 307 308 310 310 311 312 315 317 323 325 325 326 326 326 325 325 327 329 330 335 337 335 331 334 334 335 336 336 332 333 333 333
306 305 305 305 304 304 304 304 305 306 306 307 308 310 310 313 317 322 326 325 324 324 326 327 328 328 330 332 334 331 332 333 333 332 331 330 331 334
304 304 303 303 302 303 302 302 302 304 305 305 305 305 306 307 309 312 317 321 323 324 325 327 327 325 322 320 327 326 330 331 330 328 329 329 329 332
303 300 300 300 300 299 301 301 301 302 302 302 303 304 303 304 304 306 308 310 312 316 320 325 325 325 322 321 324 326 316 330 329 328 329 331 333 327
299 298 297 297 297 297 297 298 298 298 299 300 300 301 302 302 302 304 305 304 306 311 313 318 324 324 329 330 325 325 329 313 324 327 323 324 323 322
298 298 299 299 298 298 297 296 296 296 296 296 297 298 300 300 301 302 303 304 305 308 310 314 320 324 327 323 322 324 326 330 318 316 319 323 322 320
299 299 300 300 300 300 298 298 296 295 294 294 295 296 297 298 300 302 303 304 306 307 309 310 312 317 319 323 322 325 326 325 325 325 325 318 319 319
Wind_Speed
5 4 4 3 4 4 4 4 4 2 3 3 3 4 4 4 7 5 7 10 15 19 19 21 22 23 24 24 24 23 22 21 20 18 18 19 18 18
4 5 4 3 4 4 4 4 3 4 3 4 4 4 4 4 6 8 6 9 10 13 17 20 21 23 23 23 22 22 22 22 21 20 18 17 18 18
5 5 6 5 4 3 3 4 4 4 4 4 4 3 4 5 5 5 6 6 7 14 14 13 15 18 19 20 20 20 20 21 21 20 19 19 18 20
6 5 7 3 6 5 4 5 4 5 4 5 3 3 5 5 4 5 6 7 7 11 15 16 16 17 18 19 19 19 20 20 19 19 19 20 20 20
6 6 7 5 5 4 4 4 4 4 4 4 4 3 4 3 3 4 5 5 6 13 14 17 17 17 18 18 17 17 17 18 18 18 18 18 19 19
5 5 5 5 5 5 4 5 4 4 3 4 4 4 4 3 2 3 5 3 4 4 8 10 10 12 15 15 15 17 17 18 17 17 17 17 19 19
4 3 3 4 7 7 3 4 3 3 3 4 4 2 3 3 4 2 4 4 5 5 4 4 4 4 5 9 11 15 15 16 17 18 18 18 19 20
4 5 5 7 6 7 5 7 6 3 3 3 3 5 7 4 3 4 4 2 5 2 3 4 3 4 5 4 11 13 13 16 16 17 17 18 19 20
3 4 5 3 6 5 6 6 7 6 9 4 5 4 5 5 3 3 4 4 6 4 2 8 3 4 5 5 12 14 15 15 16 16 17 18 19 18
4 5 5 5 5 5 4 4 5 5 5 4 6 7 7 7 5 6 5 5 4 5 4 6 3 5 4 6 12 15 17 17 18 17 17 17 17 16
5 5 5 5 8 10 5 5 6 6 6 9 8 8 11 12 11 4 6 6 7 6 3 3 3 5 4 7 6 15 19 19 18 17 17 17 16 13
5 5 5 3 5 7 5 5 6 7 7 9 9 7 6 8 11 8 6 9 6 5 5 4 2 2 5 3 6 7 5 12 14 14 15 15 11 6
3 4 4 6 8 11 8 5 6 5 9 6 7 7 8 6 6 6 7 8 6 7 5 3 4 2 4 8 4 3 4 3 3 4 10 12 13 13
4 4 5 12 13 11 9 10 11 9 4 4 4 6 6 7 7 6 7 7 8 11 8 5 5 4 5 10 11 3 4 5 4 4 4 5 10 12
3 7 10 10 10 7 8 10 7 3 3 3 4 5 4 7 7 5 6 7 8 8 8 9 9 9 8 12 13 10 4 4 4 5 4 6 5 5
8 6 6 7 7 7 8 8 7 8 7 6 5 4 5 3 5 4 5 7 5 8 7 8 10 10 11 12 11 12 9 7 3 5 5 4 5 6
5 5 7 7 8 8 8 8 7 7 8 8 7 9 9 7 6 6 6 6 6 7 9 8 6 9 11 14 12 11 11 9 8 8 4 6 5 8
6 6 6 7 7 7 8 7 7 9 7 7 7 7 8 9 9 10 6 6 8 10 9 9 9 8 8 9 15 11 11 9 8 7 6 8 9 7
5 5 5 6 6 6 7 7 7 7 8 6 6 7 7 8 11 9 9 9 8 8 8 8 8 9 10 12 8 19 9 7 8 7 8 9 10 10
5 4 4 4 4 4 5 5 6 6 7 7 7 7 7 7 8 8 8 10 10 10 10 8 7 9 10 12 10 7 18 10 7 9 8 7 8 11
2 2 2 3 3 4 4 4 5 5 6 6 6 6 6 6 7 7 9 12 12 9 10 10 9 14 10 8 7 10 8 20 15 9 4 6 6 3
2 2 3 3 4 4 4 4 4 5 5 5 6 7 6 6 7 9 8 9 9 9 10 10 11 12 7 7 12 14 9 6 9 20 14 11 5 5
4 4 4 4 4 4 4 4 4 4 4 4 5 6 7 7 8 7 8 9 9 10 10 11 10 9 10 9 11 9 6 5 2 4 4 18 25 21
Wind_Direction
243 238 217 221 200 202 177 165 160 275 297 294 267 229 233 228 237 239 238 242 229 227 224 230 235 233 233 236 238 240 242 242 242 241 242 245 247 252
233 244 242 224 223 198 201 184 197 183 237 217 252 247 223 226 243 240 239 249 253 241 233 230 231 235 237 235 234 235 237 241 239 237 238 240 242 242
233 227 244 229 235 226 217 184 200 173 220 277 236 224 232 227 236 231 235 236 248 239 242 247 245 243 239 237 234 234 235 237 238 235 233 238 242 245
237 239 248 239 242 227 205 224 215 193 195 241 257 253 218 224 223 216 226 233 226 235 229 233 233 233 234 234 230 227 228 228 230 231 231 232 235 238
231 230 244 244 256 241 230 232 224 219 206 218 253 245 248 219 259 235 234 232 231 239 232 234 234 233 232 228 229 230 229 229 226 225 226 229 233 238
252 252 264 258 254 260 242 229 228 231 215 219 240 251 251 265 214 255 282 234 271 249 244 241 232 232 233 230 230 233 230 229 231 228 226 226 230 234
350 324 278 268 255 249 255 270 234 235 228 238 257 231 240 250 234 225 237 257 269 230 254 254 234 232 240 228 245 237 229 229 226 226 228 230 232 233
336 329 325 312 315 323 303 259 235 235 249 216 240 245 269 238 231 237 261 279 287 224 220 269 180 246 249 222 228 223 223 228 230 230 232 233 233 235
322 305 305 299 322 310 313 313 310 278 237 250 266 236 258 233 227 257 245 248 259 271 206 276 192 244 236 236 230 230 231 231 229 229 229 230 231 229
334 311 297 307 17 11 0 357 335 317 304 267 231 253 251 261 227 243 248 248 269 265 202 265 207 245 241 239 232 237 237 239 239 238 233 231 228 225
347 359 357 81 28 19 16 347 321 305 309 303 292 270 273 272 257 266 260 271 281 269 216 245 254 273 235 261 241 232 238 239 238 236 235 230 224 220
331 348 80 30 24 9 338 317 303 299 308 316 312 306 287 282 271 213 239 249 248 275 229 198 252 206 293 248 241 241 236 241 242 239 239 236 222 218
310 317 309 325 327 312 286 261 245 271 287 282 282 287 289 280 268 249 222 228 239 249 233 183 264 250 233 285 267 260 222 229 227 244 231 231 200 198
298 299 296 312 307 298 290 266 268 273 259 266 273 277 276 278 277 264 250 236 237 252 269 211 250 235 262 276 276 271 249 238 210 225 218 217 213 222
317 318 318 316 315 317 314 313 316 313 282 262 261 264 259 266 280 281 280 266 258 254 248 243 245 259 259 268 270 270 253 247 210 222 192 202 197 185
344 335 343 2 12 4 10 4 357 357 347 341 316 284 281 296 290 275 276 280 274 281 253 240 248 251 262 260 265 266 252 248 215 225 220 199 197 199
338 9 19 18 17 11 11 9 7 4 3 350 342 341 330 320 305 296 280 282 269 277 284 287 252 247 255 263 262 261 263 249 243 252 200 240 217 214
50 35 22 17 13 2 2 3 4 359 355 349 347 347 340 334 330 324 289 272 279 284 280 283 288 287 269 249 226 259 260 249 245 234 217 243 255 231
47 37 24 20 7 5 5 5 352 350 341 347 343 343 338 333 333 327 325 322 306 291 286 289 276 270 276 274 269 210 240 242 236 239 228 225 247 256
48 39 32 18 359 356 356 354 349 349 349 344 341 342 338 331 329 328 325 323 318 313 303 289 279 276 270 271 277 266 210 234 226 242 244 236 243 271
13 26 344 325 324 326 322 320 322 328 334 340 338 332 328 330 325 321 315 316 314 312 313 313 313 292 281 274 254 264 257 217 232 227 222 223 236 236
248 268 277 286 301 308 318 318 317 320 328 335 337 330 326 323 322 321 321 320 317 311 305 304 314 313 282 276 267 266 268 269 226 240 244 231 212 235
240 244 266 268 271 281 297 311 306 299 301 309 325 327 332 327 320 316 314 312 310 312 313 317 319 313 309 311 298 291 266 280 283 293 267 227 241 254